Terminal Aerodrome Forecast
Issued by NWS

Home | Current Version | Previous Version | Graphics & Text | Print | Product List | Glossary On
Versions: 1 2 3 4 5 6 7 8 9 10 11 12 13
000
FTUS43 KFGF 201720
TAFBJI
TAF
KBJI 201720Z 2018/2118 26008KT P6SM FEW200
     FM211200 33008KT P6SM SKC=

USA.gov is the U.S. government's official web portal to all federal, state and local government web resources and services.